Springfield, CO

10:04 PM MDT on March 27, 2017 (GMT -0600)
Springfield

Weather History for KSPD - January, 2014

Change the Weather History Date:

Monday, January 20, 2014

  Actual Average Record
Temperature  
Mean Temperature 37 °F -  
Max Temperature 52 °F 47 °F 73 °F (2005)
Min Temperature 21 °F 18 °F 1 °F (2001)
Degree Days  
Heating Degree Days 28 33  
Month to date heating degree days 612 665  
Since 1 July heating degree days 2736 2823  
Cooling Degree Days 0 0  
Month to date cooling degree days 0 0  
Year to date cooling degree days 0 0  
Moisture  
Dew Point 12 °F    
Average Humidity 42    
Maximum Humidity 62    
Minimum Humidity 21    
Precipitation  
Precipitation 0.00 in 0.02 in 8.37 in (2011)
Month to date precipitation 0.17 0.19  
Year to date precipitation 0.17 0.19  
Sea Level Pressure  
Sea Level Pressure 30.17 in    
Wind  
Wind Speed 15 mph (NNW)    
Max Wind Speed 31 mph    
Max Gust Speed 37 mph    
T = Trace of Precipitation, MM = Missing Value Source: NWS Daily Summary

Daily Weather History Graph

Daily Weather History Graph

Search for Another Location

Airport or City:

Trip Planner

Search our weather history database for the weather conditions in past years. The results will help you decide how hot, cold, wet, or windy it might be!

Date:

Astronomy

Jan. 20, 2014 Rise Set
Actual Time 7:01 AM MST 5:02 PM MST
Civil Twilight 6:33 AM MST 5:30 PM MST
Nautical Twilight 6:01 AM MST 6:01 PM MST
Astronomical Twilight 5:30 AM MST 6:33 PM MST
Moon 9:31 PM MST (1/20) 9:08 AM MST (1/20)
Length of Visible Light 10h 56m
Length of Day
10h 00m
Waning Gibbous, 82% of the Moon is Illuminated
Jan 20
Waning Gibbous
Jan 23
Last Quarter
Jan 30
New
Feb 6
First Quarter
Feb 14
Full

Hourly Weather History & Observations

Time (MST) Temp. Windchill Dew Point Humidity Pressure Visibility Wind Dir Wind Speed Gust Speed Precip Events Conditions
12:56 AM 37.0 °F 29.8 °F 10.0 °F 33% 29.84 in - West 10.4 mph - N/A   Unknown
1:56 AM 30.9 °F 24.3 °F 9.0 °F 40% 29.85 in - WNW 6.9 mph - N/A   Unknown
2:56 AM 35.1 °F 25.5 °F 10.0 °F 35% 29.85 in - WNW 15.0 mph - N/A   Unknown
3:56 AM 36.0 °F 26.7 °F 10.0 °F 34% 29.86 in - WNW 15.0 mph - N/A   Unknown
4:56 AM 37.0 °F 28.1 °F 10.0 °F 33% 29.93 in - NNW 15.0 mph - N/A   Unknown
5:56 AM 33.1 °F 23.9 °F 10.0 °F 38% 30.01 in - NW 12.7 mph - N/A   Unknown
6:56 AM 36.0 °F 25.6 °F 8.1 °F 31% 30.06 in - North 18.4 mph - N/A   Unknown
7:56 AM 39.9 °F 30.8 °F 9.0 °F 28% 30.09 in - NNW 18.4 mph - N/A   Unknown
8:56 AM 46.0 °F 37.6 °F 10.9 °F 24% 30.14 in - North 24.2 mph 38.0 mph N/A   Unknown
9:56 AM 46.9 °F - 14.0 °F 27% 30.18 in - North 28.8 mph 34.5 mph N/A   Unknown
10:56 AM 48.9 °F - 16.0 °F 27% 30.19 in - North 27.6 mph 36.8 mph N/A   Unknown
11:56 AM 48.9 °F - 16.0 °F 27% 30.20 in - North 23.0 mph 31.1 mph N/A   Unknown
12:56 PM 51.1 °F - 14.0 °F 23% 30.19 in - North 20.7 mph 26.5 mph N/A   Unknown
1:56 PM 51.1 °F - 12.0 °F 21% 30.22 in - North 17.3 mph - N/A   Unknown
2:56 PM 51.1 °F - 14.0 °F 23% 30.22 in - North 17.3 mph 24.2 mph N/A   Unknown
3:56 PM 48.9 °F - 15.1 °F 26% 30.25 in - North 19.6 mph 24.2 mph N/A   Unknown
4:56 PM 41.0 °F 35.8 °F 14.0 °F 33% 30.31 in - North 8.1 mph - N/A   Unknown
5:56 PM 30.0 °F 22.4 °F 12.0 °F 47% 30.37 in - NW 8.1 mph - N/A   Unknown
6:56 PM 27.0 °F 16.7 °F 12.0 °F 53% 30.40 in - NW 11.5 mph - N/A   Unknown
7:56 PM 26.1 °F 18.4 °F 12.0 °F 55% 30.39 in - NW 6.9 mph - N/A   Unknown
8:56 PM 24.1 °F 13.1 °F 12.0 °F 60% 30.40 in - WNW 11.5 mph - N/A   Unknown
9:56 PM 21.9 °F 11.7 °F 10.9 °F 63% 30.40 in - WNW 9.2 mph - N/A   Unknown
10:56 PM 21.9 °F 11.7 °F 10.9 °F 63% 30.41 in - WNW 9.2 mph - N/A   Unknown
11:56 PM 23.0 °F 13.1 °F 10.9 °F 60% 30.40 in - WNW 9.2 mph - N/A   Unknown